TimeCST,TemperatureF,Dew PointF,Humidity,Sea Level PressureIn,VisibilityMPH,Wind Direction,Wind SpeedMPH,Gust SpeedMPH,PrecipitationIn,Events,Conditions,WindDirDegrees,DateUTC
12:56 AM,37.9,36.0,93,30.04,10.0,NW,3.5,-,N/A,,Clear,320,2013-02-14 06:56:00
1:56 AM,37.0,35.1,93,30.04,10.0,Calm,Calm,-,N/A,,Clear,0,2013-02-14 07:56:00
2:56 AM,37.0,35.1,93,30.04,10.0,NNW,3.5,-,N/A,,Clear,330,2013-02-14 08:56:00
3:56 AM,37.0,35.1,93,30.05,9.0,NNW,5.8,-,N/A,,Clear,340,2013-02-14 09:56:00
4:56 AM,37.0,35.1,93,30.06,7.0,North,4.6,-,N/A,,Clear,350,2013-02-14 10:56:00
5:56 AM,37.0,35.1,93,30.06,8.0,North,4.6,-,N/A,,Clear,350,2013-02-14 11:56:00
6:56 AM,37.0,35.1,93,30.08,5.0,Calm,Calm,-,N/A,,Clear,0,2013-02-14 12:56:00
7:56 AM,37.9,36.0,93,30.11,6.0,Calm,Calm,-,0.01,,Clear,0,2013-02-14 13:56:00
8:56 AM,42.1,37.9,85,30.14,8.0,Calm,Calm,-,N/A,,Clear,0,2013-02-14 14:56:00
9:56 AM,46.0,37.9,73,30.13,10.0,NNE,4.6,-,N/A,,Clear,20,2013-02-14 15:56:00
10:56 AM,48.0,37.0,66,30.13,10.0,WNW,3.5,-,N/A,,Clear,290,2013-02-14 16:56:00
11:56 AM,50.0,37.0,61,30.11,10.0,NNW,6.9,-,N/A,,Clear,330,2013-02-14 17:56:00
12:56 PM,53.1,37.9,57,30.08,10.0,West,5.8,-,N/A,,Clear,260,2013-02-14 18:56:00
1:56 PM,55.9,34.0,44,30.05,10.0,NNW,6.9,-,N/A,,Clear,330,2013-02-14 19:56:00
2:56 PM,55.9,35.1,45,30.04,10.0,Variable,4.6,-,N/A,,Clear,0,2013-02-14 20:56:00
3:56 PM,57.0,34.0,42,30.04,10.0,WNW,3.5,-,N/A,,Clear,300,2013-02-14 21:56:00
4:56 PM,55.9,35.1,45,30.05,10.0,NNW,5.8,-,N/A,,Clear,340,2013-02-14 22:56:00
5:56 PM,48.9,39.9,71,30.06,10.0,Calm,Calm,-,N/A,,Clear,0,2013-02-14 23:56:00
6:56 PM,46.0,39.9,79,30.07,10.0,Calm,Calm,-,N/A,,Clear,0,2013-02-15 00:56:00
7:56 PM,42.1,39.0,89,30.09,10.0,Calm,Calm,-,N/A,,Clear,0,2013-02-15 01:56:00
8:56 PM,41.0,37.9,89,30.10,10.0,Calm,Calm,-,N/A,,Clear,0,2013-02-15 02:56:00
9:56 PM,39.0,36.0,89,30.10,10.0,North,3.5,-,N/A,,Clear,360,2013-02-15 03:56:00
10:56 PM,37.9,35.1,89,30.09,10.0,North,4.6,-,N/A,,Clear,350,2013-02-15 04:56:00
11:56 PM,36.0,34.0,93,30.09,10.0,Calm,Calm,-,N/A,,Clear,0,2013-02-15 05:56:00